TimePDT,TemperatureF,Dew PointF,Humidity,Sea Level PressureIn,VisibilityMPH,Wind Direction,Wind SpeedMPH,Gust SpeedMPH,PrecipitationIn,Events,Conditions,WindDirDegrees,DateUTC
12:53 AM,81.0,37.0,21,29.83,10.0,SW,11.5,-,N/A,,Clear,230,2013-09-08 07:53:00
1:53 AM,78.1,36.0,22,29.83,10.0,SW,8.1,-,N/A,,Clear,220,2013-09-08 08:53:00
2:53 AM,79.0,37.0,22,29.82,10.0,SW,9.2,-,N/A,,Clear,230,2013-09-08 09:53:00
3:53 AM,75.0,37.0,25,29.82,10.0,WNW,13.8,23.0,N/A,,Clear,300,2013-09-08 10:53:00
4:53 AM,75.9,37.0,24,29.82,10.0,SSW,6.9,-,N/A,,Clear,200,2013-09-08 11:53:00
5:53 AM,71.1,36.0,28,29.83,10.0,South,8.1,-,N/A,,Clear,190,2013-09-08 12:53:00
6:53 AM,69.1,37.0,31,29.85,10.0,SW,6.9,-,N/A,,Clear,220,2013-09-08 13:53:00
7:53 AM,77.0,37.9,24,29.85,10.0,Calm,Calm,-,N/A,,Clear,0,2013-09-08 14:53:00
8:53 AM,82.0,37.0,20,29.86,10.0,NE,3.5,-,N/A,,Clear,40,2013-09-08 15:53:00
9:53 AM,86.0,35.1,16,29.85,10.0,North,3.5,-,N/A,,Clear,360,2013-09-08 16:53:00
10:53 AM,90.0,34.0,14,29.84,10.0,Calm,Calm,-,N/A,,Clear,0,2013-09-08 17:53:00
11:53 AM,91.9,33.1,12,29.82,10.0,ENE,6.9,-,N/A,,Clear,60,2013-09-08 18:53:00
12:53 PM,95.0,32.0,11,29.80,10.0,East,5.8,-,N/A,,Clear,80,2013-09-08 19:53:00
1:53 PM,96.1,30.9,10,29.78,10.0,Variable,4.6,-,N/A,,Clear,0,2013-09-08 20:53:00
2:53 PM,97.0,30.9,10,29.75,10.0,NNE,10.4,-,N/A,,Clear,30,2013-09-08 21:53:00
3:53 PM,97.0,32.0,10,29.73,10.0,NNE,10.4,-,N/A,,Clear,30,2013-09-08 22:53:00
4:53 PM,95.0,37.9,14,29.71,10.0,WSW,15.0,-,N/A,,Clear,240,2013-09-08 23:53:00
5:53 PM,91.9,37.9,15,29.73,10.0,SW,17.3,-,N/A,,Clear,230,2013-09-09 00:53:00
6:53 PM,88.0,37.9,17,29.74,10.0,SW,18.4,-,N/A,,Clear,230,2013-09-09 01:53:00
7:53 PM,84.0,37.9,19,29.76,10.0,WSW,5.8,-,N/A,,Clear,250,2013-09-09 02:53:00
8:53 PM,82.9,39.0,21,29.78,10.0,SW,8.1,-,N/A,,Clear,230,2013-09-09 03:53:00
9:53 PM,80.1,39.9,24,29.80,10.0,South,10.4,-,N/A,,Clear,180,2013-09-09 04:53:00
10:53 PM,78.1,39.9,25,29.82,10.0,Calm,Calm,-,N/A,,Clear,0,2013-09-09 05:53:00
11:53 PM,78.1,48.0,35,29.83,10.0,NE,8.1,-,N/A,,Clear,40,2013-09-09 06:53:00